Location: Newark
(29.7944°N, 96.1047°W)
Time: 23:42:06
(UTC+00:00)

ISS - Visible Passes

Search period start: 19 July 2019 00:00
Search period end: 29 July 2019 00:00
Orbit: 409 x 418 km, 51.6° (Epoch: 20 July)

Date Brightness Start Highest point End Pass type
(mag) Time Alt. Az. Time Alt. Az. Time Alt. Az.
19 Jul -0.4 03:12:00 10° WNW 03:13:45 13° NW 03:15:31 10° N visible
19 Jul -2.3 09:43:31 10° NNW 09:46:38 38° NE 09:49:44 10° ESE visible
20 Jul -1.0 02:21:35 10° W 02:24:18 23° NW 02:27:02 10° NNE visible
20 Jul -2.7 10:33:22 23° WSW 10:33:52 24° SW 10:36:35 10° S visible
